Regional Weather Roundup
Issued by NWS

Home | Current Version | Previous Version | Text Only | Print | Product List | Glossary Off
Versions: 1 2 3 4 5 6 7 8 9 10 11 12 13 14 15 16 17 18 19 20 21 22 23 24 25 26 27 28 29 30 31 32 33 34 35 36 37 38 39 40 41 42 43 44 45 46 47 48 49 50

000
ASUS43 KLOT 250258
RWRIL

ILLINOIS REGIONAL WEATHER ROUNDUP
NATIONAL WEATHER SERVICE CHICAGO/ROMEOVILLE IL
900 PM CST WED DEC 24 2014

NOTE: "FAIR" INDICATES FEW OR NO CLOUDS BELOW 12,000 FEET WITH NO
SIGNIFICANT WEATHER AND/OR OBSTRUCTIONS TO VISIBILITY.

* THESE STATIONS ARE NOT UNDER NWS QUALITY CONTROL. THEY ALSO MAY NOT
  REPORT WEATHER SUCH AS PRECIPITATION OR FOG.

ILZ001-002-007-009-015-016-024-250400-
NORTHWEST ILLINOIS

CITY           SKY/WX    TMP DP  RH WIND       PRES   REMARKS
MOLINE         CLOUDY    36  30  79 W14       29.68S WCI  27
$$

ILZ003-004-008-010-011-017-018-250400-
NORTH CENTRAL ILLINOIS

CITY           SKY/WX    TMP DP  RH WIND       PRES   REMARKS
ROCKFORD       NOT AVBL
$$

ILZ005-006-012>014-019>023-250400-
NORTHEAST ILLINOIS

CITY           SKY/WX    TMP DP  RH WIND       PRES   REMARKS
CHICAGO-OHARE  CLOUDY    36  32  85 W15       29.56R WCI  27
CHICAGO-MIDWAY NOT AVBL
AURORA         CLOUDY    36  32  85 W18       29.60R WCI  26
WAUKEGAN       NOT AVBL
DUPAGE AIRPORT LGT RAIN  36  32  85 W15G21    29.58R WCI  27
WHEELING       CLOUDY    36  32  85 W10       29.57R WCI  28
NORTHERLY ISL    N/A     37  32  82 W9          N/A  WCI  30
$$

LMZ740>746-250400-
SOUTHERN LAKE MICHIGAN

STATION/POSITION SKY/WX   TEMP    WIND        PRES    VSBY  WAVE
                          AIR SEA DIR/SP/G                  HT/PER
                          (F)     (DEG/KT/KT) (MB)    (MI)  (FT/S)
WAUKEGAN HARBOR            37                   N/A
HARRISON CRIB              37     270/ 14/ 15   N/A
BURNHAM HARBOR             37     290/  9/ 16   N/A
CALUMET HARBOR             37     240/  5/  9 1000.0R
MICHIGAN CITY              37     220/ 19/ 22   N/A
$$

ILZ025>027-034>036-040-047-049-050-058-095>099-250400-
WEST-CENTRAL ILLINOIS

CITY           SKY/WX    TMP DP  RH WIND       PRES   REMARKS
$$

ILZ028>032-037-038-041>044-048-051>054-059>061-250400-
CENTRAL ILLINOIS

CITY           SKY/WX    TMP DP  RH WIND       PRES   REMARKS
PEORIA         NOT AVBL
SPRINGFIELD    CLOUDY    38  33  82 W13       29.75R WCI  30
TAYLORVILLE    NOT AVBL
$$

ILZ033-039-045-046-055>057-062-063-250400-
EAST-CENTRAL ILLINOIS

CITY           SKY/WX    TMP DP  RH WIND       PRES   REMARKS
CHAMPAIGN      CLOUDY    36  33  89 W17       29.70R WCI  26
$$

ILZ079-100>102-250400-
SOUTHWEST ILLINOIS

CITY           SKY/WX    TMP DP  RH WIND       PRES   REMARKS
ALTON          CLOUDY    37  32  81 W12       29.81R WCI  30
CAHOKIA*       CLOUDY    39  34  82 W9        29.83R WCI  33
$$

ILZ064>066-069>071-074>076-080>082-084>086-088>090-092>094-250400-
SOUTH-CENTRAL ILLINOIS

CITY           SKY/WX    TMP DP  RH WIND       PRES   REMARKS
CARBONDALE     CLOUDY    39  33  79 W8        29.86R WCI  33
$$

ILZ067-068-072-073-078-083-087-091-250400-
SOUTHEAST ILLINOIS

CITY           SKY/WX    TMP DP  RH WIND       PRES   REMARKS
$$

ABBREVIATIONS USED IN REMARKS
   TC - TEMPERATURE IN CELSIUS
  WCI - WIND CHILL INDEX
   HX - HEAT INDEX
  VSB - VISIBILITY
$$



USA.gov is the U.S. government's official web portal to all federal, state and local government web resources and services.